Regional Weather Roundup
Issued by NWS

Home | Current Version | Previous Version | Text Only | Print | Product List | Glossary On
Versions: 1 2 3 4 5 6 7 8 9 10 11 12 13 14 15 16 17 18 19 20 21 22 23 24 25 26 27 28 29 30 31 32 33 34 35 36 37 38 39 40 41 42 43 44 45 46 47 48 49 50
000
ASUS46 KSEW 271710
RWRWA

WASHINGTON REGIONAL WEATHER ROUNDUP
NATIONAL WEATHER SERVICE SEATTLE WA
1000 AM PDT MON APR 27 2015

NOTE:"FAIR" INDICATES FEW OR NO CLOUDS BELOW 12,000 FEET WITH NO
SIGNIFICANT WEATHER AND/OR OBSTRUCTIONS TO VISIBILITY.

WAZ505-507>509-271800-
SEATTLE, TACOMA, EVERETT, AND VICINITY

CITY           SKY/WX    TMP DP  RH WIND       PRES   REMARKS
EVERETT        LGT RAIN  54  52  93 SE8       30.25F
BOEING FIELD   MOSUNNY   62  51  67 SE7       30.25F
RENTON         MOSUNNY   62  52  69 SE3       30.24F
SEATAC AIRPORT PTSUNNY   61  51  70 SE5       30.25F
JBLM-MCCHORD   SUNNY     60  55  81 CALM      30.23F
PUYALLUP       PTSUNNY  N/A N/A N/A MISG        N/A
BREMERTON      CLOUDY    57  54  88 S10       30.26F
JBLM-FT LEWIS  SUNNY     61  56  84 N5        30.23F
TACOMA NARROWS PTSUNNY   58  51  78 CALM      30.25F
$$

WAZ001-503-506-510-514-515-271800-
NORTH INTERIOR

CITY           SKY/WX    TMP DP  RH WIND       PRES   REMARKS
BELLINGHAM     CLOUDY    52  50  93 N6        30.26S
FRIDAY HARBOR  CLOUDY    53  51  93 E8        30.25F
EASTSOUND      PTSUNNY   55  52  88 S6        30.23F
PORT ANGELES   MOSUNNY   54  46  74 NW5       30.22F
NAS WHIDBEY    CLOUDY    57  52  83 E13       30.25F
ARLINGTON      PTSUNNY   55  52  88 SE7       30.27F
BURLINGTON     CLOUDY    55  54  94 E8        30.25F
$$

WAZ020-022-039-040-504-511-512-271800-
SOUTHWEST INTERIOR

CITY           SKY/WX    TMP DP  RH WIND       PRES   REMARKS
SHELTON        CLOUDY    56  52  86 CALM      30.23F
OLYMPIA        PTSUNNY   60  52  74 S6        30.24F
CHEHALIS       FAIR      64  54  68 S6        30.23F
KELSO          SUNNY     61  52  72 CALM      30.26F
VANCOUVER      SUNNY     58  53  84 W6        30.22F
SCAPPOOSE, OR  PTSUNNY   61  53  75 CALM      30.22F
PORTLAND, OR   MOSUNNY   59  53  80 NW5       30.22F
$$

WAZ021-516-517-271800-
WASHINGTON COAST

CITY           SKY/WX    TMP DP  RH WIND       PRES   REMARKS
FORKS          LGT RAIN  55  55 100 SE7       30.20F VSB 3/4
HOQUIAM        CLOUDY    56  54  93 NE8       30.22F
ASTORIA, OR    SUNNY     60  54  80 E8        30.19F
$$

WAZ019-023-024-040-518-519-271800-
CASCADE MOUNTAINS AND COLUMBIA GORGE

CITY           SKY/WX    TMP DP  RH WIND       PRES   REMARKS
TROUTDALE, OR  SUNNY     62  50  64 E7        30.20F
THE DALLES, OR SUNNY     62  46  55 VRB3      30.28F
$$

WAZ026-027-041>044-520-521-271800-
EAST SLOPES

CITY           SKY/WX    TMP DP  RH WIND       PRES   REMARKS
OMAK           CLOUDY    57  29  34 SW7       30.31S
WENATCHEE      PTSUNNY   58  32  37 S5        30.29F
ELLENSBURG     MOSUNNY   59  35  40 SE5       30.28S
YAKIMA         SUNNY     63  32  31 CALM      30.29F
$$

WAZ028-034-035-271800-
COLUMBIA BASIN

CITY           SKY/WX    TMP DP  RH WIND       PRES   REMARKS
EPHRATA        MOSUNNY   57  30  35 E6        30.30F
MOSES LAKE     MOSUNNY   58  36  43 E6        30.31F
PASCO          SUNNY     61  41  47 SE6       30.31F
HERMISTON, OR  SUNNY     61  40  45 NW3       30.30F
$$

WAZ036>038-271800-
NORTHEAST WASHINGTON

CITY           SKY/WX    TMP DP  RH WIND       PRES   REMARKS
SPOKANE GEIGER MOSUNNY   55  28  35 VRB3      30.34R
SPOKANE FELTS  SUNNY     55  36  48 CALM      30.35F
FAIRCHILD AFB  SUNNY     55  27  34 VRB2      30.34
COEURDALENE,ID SUNNY     54  21  28 CALM      30.36S
DEER PARK      SUNNY     53  32  44 CALM      30.36R
$$

WAZ029>033-271800-
SOUTHEAST WASHINGTON

CITY           SKY/WX    TMP DP  RH WIND       PRES   REMARKS
PULLMAN        SUNNY     54  32  43 E10       30.35F
LEWISTON, ID   SUNNY     54  34  46 NE6       30.35F
WALLA WALLA    SUNNY     64  37  36 N6        30.31S
PENDLETON, OR  SUNNY     60  36  40 CALM      30.30S
$$



USA.gov is the U.S. government's official web portal to all federal, state and local government web resources and services.